Date,TemperatureHighF,TemperatureAvgF,TemperatureLowF,DewpointHighF,DewpointAvgF,DewpointLowF,HumidityHigh,HumidityAvg,HumidityLow,PressureMaxIn,PressureMinIn,WindSpeedMaxMPH,WindSpeedAvgMPH,GustSpeedMaxMPH,PrecipitationSumIn
2013-6-1,86.8,79.9,75.2,75.0,71.0,67.6,80,75,64,29.81,29.60,19,8,22,0.00
2013-6-2,85.0,75.7,66.2,67.8,58.7,53.0,78,58,34,29.92,29.77,13,4,13,0.00
2013-6-3,89.3,74.5,60.3,64.9,60.2,53.8,83,63,42,29.84,29.61,10,3,10,0.00
2013-6-4,89.8,78.6,68.4,70.8,66.4,60.9,81,67,51,29.79,29.51,15,6,15,0.00
2013-6-5,90.9,80.3,71.5,72.9,69.1,65.2,84,70,52,29.61,29.39,16,4,16,0.02
2013-6-6,78.5,73.7,68.0,69.8,66.7,62.9,88,79,66,29.50,29.34,20,4,20,0.81
2013-6-7,85.5,74.1,62.3,63.1,59.8,57.3,84,64,40,29.49,29.30,11,3,11,0.00
2013-6-8,85.5,78.4,74.0,64.1,61.7,60.6,66,57,48,29.87,29.81,9,4,9,0.00
2013-6-9,88.9,77.9,68.4,72.7,67.5,61.7,89,71,55,29.95,29.86,14,3,14,1.11
2013-6-10,94.9,82.0,70.4,72.7,68.6,64.8,88,66,41,29.96,29.90,13,4,13,0.00
2013-6-11,91.8,82.9,74.5,73.8,70.9,65.5,87,68,51,30.03,29.92,15,6,15,0.00
2013-6-12,92.7,83.3,75.6,73.8,71.5,69.2,88,69,50,30.06,29.92,19,6,19,0.00
2013-6-13,95.9,85.1,74.3,74.7,71.8,68.9,85,66,46,30.05,29.89,12,4,12,0.00
2013-6-14,97.2,86.7,75.2,76.7,72.4,68.3,80,64,46,29.98,29.87,8,2,8,0.00
2013-6-15,93.1,82.5,74.5,76.2,72.4,65.6,86,72,54,30.00,29.88,31,4,31,0.40
2013-6-16,93.2,83.3,74.9,75.8,71.9,68.9,88,70,48,30.00,29.86,12,4,12,0.00
2013-6-17,90.0,80.7,69.3,76.3,71.7,64.8,88,75,62,30.04,29.85,19,4,19,0.55
2013-6-18,82.3,77.0,72.0,72.6,69.8,67.2,86,79,69,29.99,29.86,10,3,10,0.01
2013-6-19,90.4,79.4,70.0,75.7,70.9,65.3,90,76,58,29.99,29.87,12,4,12,0.00
2013-6-20,93.4,83.8,75.6,72.8,70.8,67.9,86,67,47,30.04,29.91,15,6,15,0.00
2013-6-21,93.2,84.1,75.2,73.7,70.6,67.2,84,65,48,30.07,29.95,14,6,16,0.00
2013-6-22,92.5,83.6,74.9,73.4,70.0,67.5,83,65,48,30.04,29.88,17,6,17,0.00
2013-6-23,92.9,83.9,75.2,73.1,69.7,66.3,82,63,46,29.99,29.87,16,7,16,0.00
2013-6-24,93.4,84.4,75.6,73.2,69.9,66.3,82,63,45,30.02,29.88,14,6,16,0.00
2013-6-25,95.4,85.7,75.8,73.3,69.8,66.8,81,61,41,29.98,29.81,18,8,18,0.00
2013-6-26,96.7,86.1,76.3,72.8,69.8,64.5,81,60,43,29.96,29.83,18,7,18,0.00
2013-6-27,98.8,87.0,77.6,74.1,70.5,67.4,75,59,39,29.99,29.83,15,4,15,0.00
2013-6-28,102.1,88.1,77.6,74.3,68.8,65.1,70,54,36,29.92,29.78,14,4,14,0.00
2013-6-29,97.2,86.1,75.6,69.9,64.2,60.9,70,50,32,29.86,29.77,11,4,16,0.00
2013-6-30,90.7,81.0,72.0,63.4,59.8,55.6,71,50,33,29.91,29.78,14,4,14,0.00